K9MWM-1 Weather Reports


Display with metric or nautical units.
time (UTC)temp
F
wind
direction
speed
MPH
gust
MPH
rain 1hr
in
rain 24hr
in
rain mn
in
humidity
%
barometer
mb
20260901012255 58 337 0.0 0.0 0.00 0.00 0.00
20260901010204 58 337 0.0 0.0 0.00 0.00 0.00
20260901002534 60 101 0.0 0.0 0.00 0.00 0.00
20260901002021 60 337 0.0 0.0 0.00 0.00 0.00
20260901000443 60 110 0.0 0.0 0.00 0.00 0.00
20260831235930 59 337 0.0 0.0 0.00 0.00 0.00
20260831235417 59 136 0.0 0.0 0.00 0.00 0.00
20260831234904 59 139 0.0 0.0 0.00 0.00 0.00
20260831234351 59 337 0.0 0.0 0.00 0.00 0.00
20260831194904 71 316 0.0 0.0 0.00 0.00 0.00
20260831192258 76 347 0.0 0.0 0.00 0.00 0.00
20260831184116 75 292 0.0 0.0 0.00 0.00 0.00
20260831183050 76 316 0.0 0.0 0.00 0.00 0.00
20260831182024 76 315 0.0 0.0 0.00 0.00 0.00
20260831175420 74 298 0.0 0.0 0.00 0.00 0.00
20260831164121 65 337 0.0 0.0 0.00 0.00 0.00
20260831163608 64 5 0.0 0.0 0.00 0.00 0.00
20260831162543 62 202 0.0 0.0 0.00 0.00 0.00
20260831161517 61 337 0.0 0.0 0.00 0.00 0.00
20260831160452 60 337 0.0 0.0 0.00 0.00 0.00
20260831155937 59 330 0.0 0.0 0.00 0.00 0.00
20260831154912 58 352 0.0 0.0 0.00 0.00 0.00
20260831153333 58 170 0.0 0.0 0.00 0.00 0.00
20260831152308 57 337 0.0 0.0 0.00 0.00 0.00
20260831150217 54 156 0.0 0.0 0.00 0.00 0.00
20260831144638 52 143 0.0 0.0 0.00 0.00 0.00
20260831144125 52 187 0.0 0.0 0.00 0.00 0.00
20260831141521 50 135 0.0 0.0 0.00 0.00 0.00
20260831141009 50 33 0.0 0.0 0.00 0.00 0.00
20260831140455 50 351 0.0 0.0 0.00 0.00 0.00
20260831135942 49 140 0.0 0.0 0.00 0.00 0.00
20260831135429 49 337 0.0 0.0 0.00 0.00 0.00
20260831134916 49 292 0.0 0.0 0.00 0.00 0.00
20260831132313 48 157 0.0 0.0 0.00 0.00 0.00
20260831131759 48 337 0.0 0.0 0.00 0.00 0.00
20260831131247 48 337 0.0 0.0 0.00 0.00 0.00
20260831130734 48 337 0.0 0.0 0.00 0.00 0.00
20260831130221 48 337 0.0 0.0 0.00 0.00 0.00
20260831125708 48 337 0.0 0.0 0.00 0.00 0.00
20260831125155 48 337 0.0 0.0 0.00 0.00 0.00
20260831124642 48 337 0.0 0.0 0.00 0.00 0.00
20260831103621 49 247 0.0 0.0 0.00 0.00 0.00
20260831064912 50 67 0.0 0.0 0.00 0.00 0.00
20260831064400 50 337 0.0 0.0 0.00 0.00 0.00
20260831062820 50 337 0.0 0.0 0.00 0.00 0.00
20260831062308 50 348 0.0 0.0 0.00 0.00 0.00
20260831061755 50 165 0.0 0.0 0.00 0.00 0.00
20260831061242 50 337 0.0 0.0 0.00 0.00 0.00